Le nostre stazioni meteo in Italia

Pubblicità
Il mio iltempo24.it
S. Valentino Alla Muta, Italia (16008): Temperatura & dewpoint: 02.07.2020 12:00:00 - 08.07.2020 12:00:00 (CEST)S. Valentino Alla Muta, Italia (16008): velocità del vento: 02.07.2020 12:00:00 - 08.07.2020 12:00:00 (CEST)S. Valentino Alla Muta, Italia (16008): direzione del vento: 02.07.2020 12:00:00 - 08.07.2020 12:00:00 (CEST)S. Valentino Alla Muta, Italia (16008): visibility: 02.07.2020 12:00:00 - 08.07.2020 12:00:00 (CEST)
Data & Tempo tt [°C] td [°C] ff [km/h] ff [kn] dd vv [km]
08.07.2020 12:00:00 16,0 9,2 15 8 SSO 20
08.07.2020 11:00:00 14,6 9,2 15 8 S 20
08.07.2020 10:00:00 11,4 6,1 4 2 SO 20
08.07.2020 09:00:00 8,6 5,5 2 1 N 30
08.07.2020 08:00:00 8,4 5,9 4 2 ENE 30
08.07.2020 07:00:00 8,6 5,4 2 1 N 30
08.07.2020 06:00:00 9,0 5,4 2 1 NE 30
08.07.2020 05:00:00 9,4 5,2 4 2 NE 30
08.07.2020 04:00:00 9,6 5,0 5 3 NNE 30
08.07.2020 03:00:00 10,2 5,0 4 2 NNE 30
08.07.2020 02:00:00 10,6 5,2 5 3 NNE 30
08.07.2020 01:00:00 11,2 4,2 4 2 NNE 30
08.07.2020 00:00:00 12,6 4,1 2 1 NE 30
07.07.2020 23:00:00 14,0 4,3 2 1 NNE 30
07.07.2020 22:00:00 15,4 3,2 2 1 E 30
07.07.2020 21:00:00 17,6 2,7 4 2 N 30
07.07.2020 20:00:00 19,6 2,5 4 2 NE 30
07.07.2020 19:00:00 20,2 3,0 11 6 NNO 30
07.07.2020 18:00:00 20,2 3,9 9 5 N 30
07.07.2020 17:00:00 20,2 4,7 13 7 N 30
07.07.2020 16:00:00 15,0 0,8 13 7 N 30
07.07.2020 15:00:00 19,0 4,7 11 6 NNE 30
07.07.2020 14:00:00 17,6 4,9 15 8 NNE 30
07.07.2020 13:00:00 16,0 5,0 15 8 NE 30
07.07.2020 12:00:00 14,4 5,7 16 9 NNE 30
07.07.2020 11:00:00 11,4 4,8 16 9 NE 30
07.07.2020 10:00:00 10,0 4,8 13 7 NE 30
07.07.2020 09:00:00 8,8 5,0 15 8 ENE 20
07.07.2020 08:00:00 8,6 5,4 13 7 ENE 20
07.07.2020 07:00:00 9,0 5,7 11 6 NNE 15
07.07.2020 06:00:00 10,0 6,7 15 8 NNE 15
07.07.2020 05:00:00 10,6 6,7 11 6 NNE 15
07.07.2020 04:00:00 11,8 6,5 9 5 NNE 15
07.07.2020 03:00:00 12,0 6,3 11 6 NNE 15
07.07.2020 02:00:00 12,6 6,2 9 5 NE 10
07.07.2020 01:00:00 13,2 5,6 8 4 NE 15
07.07.2020 00:00:00 13,8 5,7 13 7 N 15
06.07.2020 23:00:00 14,8 6,6 16 9 N 15
06.07.2020 22:00:00 16,0 7,7 15 8 N 15
06.07.2020 21:00:00 17,0 9,4 21 11 N 15
06.07.2020 20:00:00 18,6 11,2 18 10 NNE 15
06.07.2020 19:00:00 19,8 11,8 18 10 N 12
06.07.2020 18:00:00 21,4 12,5 22 12 N 10
06.07.2020 17:00:00 22,6 11,7 18 10 N 20
06.07.2020 16:00:00 25,4 11,6 26 14 N 16
06.07.2020 15:00:00 25,6 10,2 9 5 N 20
06.07.2020 14:00:00 24,8 9,1 15 8 N 20
06.07.2020 13:00:00 24,0 9,6 13 7 N 20
06.07.2020 12:00:00 21,4 10,0 13 7 N 20
06.07.2020 11:00:00 19,6 12,6 11 6 NNE 20
06.07.2020 10:00:00 17,0 10,2 11 6 NNE 20
06.07.2020 09:00:00 14,0 9,0 9 5 NE 30
06.07.2020 08:00:00 12,6 10,1 8 4 NNE 30
06.07.2020 07:00:00 13,4 10,6 9 5 NNE 30
06.07.2020 06:00:00 14,0 10,6 9 5 NNE 30
06.07.2020 05:00:00 14,0 10,6 9 5 NNE 30
06.07.2020 04:00:00 14,0 10,4 11 6 NNE 30
06.07.2020 03:00:00 14,4 10,4 11 6 NNE 30
06.07.2020 02:00:00 15,4 10,8 8 4 NNE 30
06.07.2020 01:00:00 15,8 10,8 5 3 N 30
06.07.2020 00:00:00 16,4 11,4 5 3 N 30
05.07.2020 23:00:00 17,2 11,2 5 3 NNE 30
05.07.2020 22:00:00 19,0 12,3 5 3 NNE 30
05.07.2020 21:00:00 20,0 11,2 5 3 NE 30
05.07.2020 20:00:00 21,4 10,5 4 2 NNE 30
05.07.2020 19:00:00 22,4 9,9 8 4 N 30
05.07.2020 18:00:00 23,0 9,4 11 6 N 30
05.07.2020 17:00:00 23,0 9,1 13 7 N 30
05.07.2020 16:00:00 22,6 8,3 9 5 N 30
05.07.2020 15:00:00 22,6 8,0 13 7 N 30
05.07.2020 14:00:00 22,6 8,0 11 6 N 30
05.07.2020 13:00:00 20,6 6,5 13 7 NNE 30
05.07.2020 12:00:00 18,4 5,6 8 4 NNE 30
05.07.2020 11:00:00 17,2 5,2 11 6 NNE 30
05.07.2020 10:00:00 14,6 5,4 9 5 N 30
05.07.2020 09:00:00 12,4 4,9 9 5 NNE 30
05.07.2020 08:00:00 10,6 4,7 9 5 NNE 30
05.07.2020 07:00:00 10,4 6,7 9 5 N 30
05.07.2020 06:00:00 10,6 6,5 11 6 N 20
05.07.2020 05:00:00 11,4 7,1 9 5 N 10
05.07.2020 04:00:00 11,6 6,7 9 5 N 10
05.07.2020 03:00:00 12,0 6,3 8 4 N 10
05.07.2020 02:00:00 13,0 6,6 8 4 N 10
05.07.2020 01:00:00 13,4 6,3 8 4 N 10
05.07.2020 00:00:00 14,4 6,0 5 3 N 10
04.07.2020 23:00:00 15,4 5,3 9 5 NNE 10
04.07.2020 22:00:00 16,8 4,8 15 8 N 20
04.07.2020 21:00:00 17,8 3,7 5 3 NE 20
04.07.2020 20:00:00 19,0 4,4 9 5 N 20
04.07.2020 19:00:00 20,6 6,2 8 4 N 30
04.07.2020 18:00:00 21,0 4,6 11 6 N 20
04.07.2020 17:00:00 20,8 7,4 13 7 N 20
04.07.2020 16:00:00 20,8 6,4 11 6 N 20
04.07.2020 15:00:00 20,4 6,4 15 8 N 30
04.07.2020 14:00:00 19,4 6,5 13 7 NNE 30
04.07.2020 13:00:00 19,8 8,5 11 6 NNE 30
04.07.2020 12:00:00 17,2 7,5 15 8 NNE 30
04.07.2020 11:00:00 15,4 8,2 11 6 NNE 30
04.07.2020 10:00:00 15,6 10,2 11 6 NNE 30
04.07.2020 09:00:00 12,2 9,0 9 5 NE 30
04.07.2020 08:00:00 10,0 8,3 9 5 NE 30
04.07.2020 07:00:00 9,4 7,8 9 5 N 10
04.07.2020 06:00:00 9,8 8,1 9 5 N 10
04.07.2020 05:00:00 10,2 8,1 9 5 N 10
04.07.2020 04:00:00 11,2 9,1 8 4 N 10
04.07.2020 03:00:00 - - - - - -
04.07.2020 02:00:00 10,8 8,4 9 5 NNE 10
04.07.2020 01:00:00 11,2 8,6 9 5 N 10
04.07.2020 00:00:00 11,6 8,3 5 3 N 10
03.07.2020 23:00:00 12,0 8,1 8 4 N 10
03.07.2020 22:00:00 13,2 8,5 5 3 ENE 10
03.07.2020 21:00:00 11,4 5,5 9 5 NE 10
03.07.2020 20:00:00 14,6 8,1 8 4 ENE 10
03.07.2020 19:00:00 15,6 7,9 9 5 NNE 10
03.07.2020 18:00:00 16,4 7,9 15 8 N 20
03.07.2020 17:00:00 17,0 8,4 13 7 NNE 20
03.07.2020 16:00:00 17,0 8,4 13 7 NNE 10
03.07.2020 15:00:00 17,8 9,2 15 8 NNE 20
03.07.2020 14:00:00 16,2 9,4 15 8 NNE 20
03.07.2020 13:00:00 16,0 9,4 15 8 NNE 10
03.07.2020 12:00:00 16,2 9,9 13 7 N 10
03.07.2020 11:00:00 12,2 9,6 11 6 NNE 10
03.07.2020 10:00:00 12,0 9,4 13 7 ENE 10
03.07.2020 09:00:00 11,6 10,0 13 7 ENE 20
03.07.2020 08:00:00 11,2 10,1 11 6 NE 20
03.07.2020 07:00:00 11,0 10,5 9 5 NE 20
03.07.2020 06:00:00 11,0 11,0 5 3 NNE 10
03.07.2020 05:00:00 11,0 11,0 5 3 NNE 10
03.07.2020 04:00:00 - - - - - -
03.07.2020 03:00:00 11,6 11,6 8 4 NNE 6
03.07.2020 02:00:00 11,6 11,6 8 4 NNE 6
03.07.2020 01:00:00 11,8 11,8 8 4 NNE 6
03.07.2020 00:00:00 11,8 11,4 5 3 N 6
02.07.2020 23:00:00 12,0 12,0 8 4 N 10
02.07.2020 22:00:00 12,4 11,9 8 4 NNE 12
02.07.2020 21:00:00 13,6 12,3 9 5 N 12
02.07.2020 20:00:00 13,6 12,3 11 6 NE 6
02.07.2020 19:00:00 18,6 13,0 4 2 N 15
02.07.2020 18:00:00 19,0 10,5 9 5 SE 20
02.07.2020 17:00:00 19,6 9,5 15 8 S 20
02.07.2020 16:00:00 20,8 11,4 13 7 S 20
02.07.2020 15:00:00 21,6 11,3 8 4 SSO 20
02.07.2020 14:00:00 20,2 6,2 4 2 NO 20
02.07.2020 13:00:00 19,6 7,4 8 4 N 20
02.07.2020 12:00:00 16,8 10,2 8 4 NNE 20

tt = Temperatura
td = dewpoint
ff = velocità del vento
dd = direzione del vento
vv = visibility

Stazioni seguenti

WeatherPro
AMSI
MeteoEarth